Regional Weather Roundup
Issued by NWS Memphis, TN

Home | Current Version | Previous Version | Text Only | Print | Product List | Glossary On
Versions: 1 2 3 4 5 6 7 8 9 10 11 12 13 14 15 16 17 18 19 20 21 22 23 24 25 26 27 28 29 30 31 32 33 34 35 36 37 38 39 40 41 42 43 44 45 46 47 48 49 50
000
ASUS44 KMEG 250410
RWRMEG
MEMPHIS CWA HOURLY WEATHER ROUNDUP
NATIONAL WEATHER SERVICE MEMPHIS TN
1000 PM CST SAT JAN 24 2015

...WEST TENNESSEE...

CITY           SKY/WX    TMP DP  RH WIND       PRES   REMARKS
MEMPHIS INTL   CLEAR     42  34  73 SW6       29.91F
NWS MEMPHIS      N/A     44 N/A N/A MISG        N/A
JACKSON        CLEAR     39  30  70 S8        29.90F WCI  33
LEXINGTON      CLEAR     39  28  65 S7        29.90F WCI  34
SAVANNAH       CLEAR     39  30  70 S5        29.95S
DYERSBURG      CLEAR     43  23  45 S5        29.89F
UNION CITY     CLEAR     36  30  80 S6        29.85F WCI  31
PARIS          CLEAR     36  28  75 SW8       29.87F WCI  29


...EASTERN ARKANSAS...

CITY           SKY/WX    TMP DP  RH WIND       PRES   REMARKS
JONESBORO      CLEAR     41  33  73 SW7       29.88F
WEST MEMPHIS   CLEAR     39  34  82 S7        29.90F WCI  34
BATESVILLE     CLEAR     48  30  49 CALM      29.87F
NEWPORT        CLEAR     37  32  82 SW12      29.89F WCI  29
WALNUT RIDGE   PTCLDY    37  28  70 SW9       29.86F WCI  31
BLYTHEVILLE    CLEAR     41  34  76 SW10      29.89F
SEARCY         CLEAR     37  29  72 SW3       29.92S
STUTTGART      CLEAR     45  34  65 SW9       29.93S
PINE BLUFF     CLEAR     45  32  60 SW7       29.95S
MONTICELLO     CLEAR     47  33  58 SW9       29.96F


...NORTH MISSISSIPPI...

CITY           SKY/WX    TMP DP  RH WIND       PRES   REMARKS
TUPELO         CLEAR     38  30  73 S7        29.97F WCI  33
OXFORD         CLEAR     41  32  70 S6        29.96F
OLIVE BRANCH   CLEAR     36  36 100 S8        29.93S WCI  29
TUNICA         CLEAR     36  32  87 S7        29.94F WCI  30
CLARKSDALE     CLEAR     43  37  81 S7        29.95F
CORINTH        CLEAR     36  32  87 CALM      29.94S
GRENADA        CLEAR     34  32  93 CALM      29.98S
GREENWOOD      CLEAR     42  35  76 SW9       29.99R
COLUMBUS       CLEAR     33  29  87 S5        29.99F WCI  28
STARKVILLE     FAIR      32  32 100 CALM      30.00S
GOLDEN TRIANGL CLEAR     39  30  70 S6        29.99S WCI  35


...SOUTHEAST MISSOURI...

CITY           SKY/WX    TMP DP  RH WIND       PRES   REMARKS
WEST PLAINS    CLOUDY    48  30  49 SW12      29.83F
POPLAR BLUFF   PTCLDY    40  32  73 SW6       29.83F
CAPE GIRARDEAU MOCLDY    39  32  76 CALM      29.82F


...NORTHWEST ALABAMA...

CITY           SKY/WX    TMP DP  RH WIND       PRES   REMARKS
MUSCLE SHOALS  CLEAR     40  29  64 SW3       29.97S


...MIDDLE TENNESSEE...

CITY           SKY/WX    TMP DP  RH WIND       PRES   REMARKS
NASHVILLE      CLEAR     37  31  78 S7        29.90F WCI  32
CLARKSVILLE    CLEAR     37  28  70 S8        29.87F WCI  31
COLUMBIA         N/A     37  36  93 SW7       29.91S WCI  32


...WESTERN KENTUCKY...

CITY           SKY/WX    TMP DP  RH WIND       PRES   REMARKS
PADUCAH        MOCLDY    44  31  60 SW10      29.83F
FORT CAMPBELL  CLEAR     39  28  66 S7        29.86F WCI  34


...CENTRAL ARKANSAS...

CITY           SKY/WX    TMP DP  RH WIND       PRES   REMARKS
LITTLE ROCK    CLEAR     46  32  58 CALM      29.93S


SKY/WX REPORTED AS FAIR MEANS FEW OR NO CLOUDS BELOW
12 THOUSAND FEET.




USA.gov is the U.S. government's official web portal to all federal, state and local government web resources and services.